Weather in Paleh

Russia / Ivanovo Oblast     56°48′06″N   41°51′09″E
temp.,
°C
wind,
m/s
gust,
m/s
humid.,
%
clouds,
%
prec.,
mm/h
press.,
hPa
HPBL,
m
24 september, fri
fri2400:00+9se4998100 2.7 1011515
03:00+8se3998100 6.3 1009443
06:00+8sse3895100 0.9 1008444
09:00+8sse3894100 1.0 1009430
12:00+12s477329 0.1 10081056
15:00+12s367498 1.0 10081008
18:00+9se288798 0.4 1009288
21:00+7se279464 0.5 1009171
25 september, sat
sat2500:00+6sse26955 0.0 1010120
03:00+5ese239597 0.0 100960
06:00+7se2893100 0.0 1009217
09:00+10sse358534 0.0 1009259
12:00+14s24535 0.0 10091361
15:00+13s1159100 0.0 100942
18:00+11se226899 0.0 100942
21:00+10se2671100 0.0 1009149
26 september, sun
sun2600:00+9se2773100 0.0 1008232
03:00+8se258866 0.3 1008128
06:00+8se2691100 0.1 1008180
09:00+8e2494100 0.8 1008120
12:00+9ene2592100 0.4 1009260
15:00+10ne258982 0.5 1010259
18:00+9nne2792100 0.2 1011159
21:00+8nne399343 0.3 1014256
27 september, mon
mon2700:00+6n2896100 0.0 1015193
03:00+8n31093100 0.0 1016537
06:00+8n4993100 0.0 1017512
09:00+8n4993100 0.2 1018692
12:00+8n3891100 0.3 1020613
15:00+8nne4891100 0.4 1021588
18:00+8nne4993100 0.0 1023642
21:00+8ne4994100 0.1 1025624
28 september, tue
tue2800:00+7ne3892100 0.0 1026514
03:00+6nne379556 0.0 1028312
06:00+6nne3794100 0.0 1029413
09:00+7nne3688100 0.0 1030439
12:00+8nne3475100 0.0 1030688
15:00+9n3570100 0.0 1030831
18:00+8n3780100 0.0 1031508
21:00+7nne2883100 0.1 1031472